Year,Month,Day,Hour,Minute,Value (Times are PST for temperature in C)
2015,07,01,00,00,17.60
2015,07,01,00,01,17.60
2015,07,01,00,02,17.50
2015,07,01,00,03,17.50
2015,07,01,00,04,17.40
2015,07,01,00,05,17.40
2015,07,01,00,06,17.40
2015,07,01,00,07,17.30
2015,07,01,00,08,17.30
2015,07,01,00,09,17.30
2015,07,01,00,10,17.30
2015,07,01,00,11,17.20
2015,07,01,00,12,17.20
2015,07,01,00,13,17.20
2015,07,01,00,14,17.20
2015,07,01,00,15,17.10
2015,07,01,00,16,17.10
2015,07,01,00,17,17.10
2015,07,01,00,18,17.10
2015,07,01,00,19,17.00
2015,07,01,00,20,17.00
2015,07,01,00,21,17.00
2015,07,01,00,22,17.00
2015,07,01,00,23,16.90
2015,07,01,00,24,16.90
2015,07,01,00,25,16.90
2015,07,01,00,26,16.90
2015,07,01,00,27,16.90
2015,07,01,00,28,16.90
2015,07,01,00,29,16.90
2015,07,01,00,30,16.90
2015,07,01,00,31,16.80
2015,07,01,00,32,16.80
2015,07,01,00,33,16.80
2015,07,01,00,34,16.80
2015,07,01,00,35,16.80
2015,07,01,00,36,16.80
2015,07,01,00,37,16.80
2015,07,01,00,38,16.80
2015,07,01,00,39,16.80
2015,07,01,00,40,16.80
2015,07,01,00,41,16.80
2015,07,01,00,42,16.80
2015,07,01,00,43,16.80
2015,07,01,00,44,16.80
2015,07,01,00,45,16.80
2015,07,01,00,46,16.80
2015,07,01,00,47,16.80
2015,07,01,00,48,16.80
2015,07,01,00,49,16.70
2015,07,01,00,50,16.70
2015,07,01,00,51,16.70
2015,07,01,00,52,16.70
2015,07,01,00,53,16.70
2015,07,01,00,54,16.70
2015,07,01,00,55,16.70
2015,07,01,00,56,16.70
2015,07,01,00,57,16.70
2015,07,01,00,58,16.60
2015,07,01,00,59,16.60
2015,07,01,01,00,16.60
2015,07,01,01,01,16.60
2015,07,01,01,02,16.60
2015,07,01,01,03,16.60
2015,07,01,01,04,16.60
2015,07,01,01,05,16.60
2015,07,01,01,06,16.50
2015,07,01,01,07,16.50
2015,07,01,01,08,16.50
2015,07,01,01,09,16.50
2015,07,01,01,10,16.50
2015,07,01,01,11,16.50
2015,07,01,01,12,16.50
2015,07,01,01,13,16.40
2015,07,01,01,14,16.40
2015,07,01,01,15,16.40
2015,07,01,01,16,16.40
2015,07,01,01,17,16.40
2015,07,01,01,18,16.40
2015,07,01,01,19,16.40
2015,07,01,01,20,16.40
2015,07,01,01,21,16.30
2015,07,01,01,22,16.30
2015,07,01,01,23,16.30
2015,07,01,01,24,16.30
2015,07,01,01,25,16.30
2015,07,01,01,26,16.30
2015,07,01,01,27,16.30
2015,07,01,01,28,16.30
2015,07,01,01,29,16.30
2015,07,01,01,30,16.30
2015,07,01,01,31,16.30
2015,07,01,01,32,16.30
2015,07,01,01,33,16.30
2015,07,01,01,34,16.30
2015,07,01,01,35,16.30
2015,07,01,01,36,16.30
2015,07,01,01,37,16.30
2015,07,01,01,38,16.30
2015,07,01,01,39,16.20
2015,07,01,01,40,16.20
2015,07,01,01,41,16.20
2015,07,01,01,42,16.20
2015,07,01,01,43,16.20
2015,07,01,01,44,16.20
2015,07,01,01,45,16.20
2015,07,01,01,46,16.20
2015,07,01,01,47,16.20
2015,07,01,01,48,16.20
2015,07,01,01,49,16.20
2015,07,01,01,50,16.20
2015,07,01,01,51,16.20
2015,07,01,01,52,16.20
2015,07,01,01,53,16.20
2015,07,01,01,54,16.20
2015,07,01,01,55,16.20
2015,07,01,01,56,16.20
2015,07,01,01,57,16.20
2015,07,01,01,58,16.20
2015,07,01,01,59,16.20
2015,07,01,02,00,16.10
2015,07,01,02,01,16.10
2015,07,01,02,02,16.10
2015,07,01,02,03,16.10
2015,07,01,02,04,16.10
2015,07,01,02,05,16.10
2015,07,01,02,06,16.10
2015,07,01,02,07,16.10
2015,07,01,02,08,16.10
2015,07,01,02,09,16.10
2015,07,01,02,10,16.00
2015,07,01,02,11,16.00
2015,07,01,02,12,16.00
2015,07,01,02,13,16.00
2015,07,01,02,14,15.90
2015,07,01,02,15,15.90
2015,07,01,02,16,15.90
2015,07,01,02,17,15.90
2015,07,01,02,18,15.90
2015,07,01,02,19,15.90
2015,07,01,02,20,15.90
2015,07,01,02,21,15.80
2015,07,01,02,22,15.80
2015,07,01,02,23,15.80
2015,07,01,02,24,15.80
2015,07,01,02,25,15.80
2015,07,01,02,26,15.80
2015,07,01,02,27,15.80
2015,07,01,02,28,15.80
2015,07,01,02,29,15.80
2015,07,01,02,30,15.80
2015,07,01,02,31,15.80
2015,07,01,02,32,15.80
2015,07,01,02,33,15.80
2015,07,01,02,34,15.70
2015,07,01,02,35,15.70
2015,07,01,02,36,15.70
2015,07,01,02,37,15.70
2015,07,01,02,38,15.70
2015,07,01,02,39,15.70
2015,07,01,02,40,15.70
2015,07,01,02,41,15.70
2015,07,01,02,42,15.70
2015,07,01,02,43,15.70
2015,07,01,02,44,15.60
2015,07,01,02,45,15.60
2015,07,01,02,46,15.60
2015,07,01,02,47,15.60
2015,07,01,02,48,15.60
2015,07,01,02,49,15.50
2015,07,01,02,50,15.50
2015,07,01,02,51,15.50
2015,07,01,02,52,15.40
2015,07,01,02,53,15.40
2015,07,01,02,54,15.40
2015,07,01,02,55,15.40
2015,07,01,02,56,15.40
2015,07,01,02,57,15.40
2015,07,01,02,58,15.30
2015,07,01,02,59,15.30
2015,07,01,03,00,15.30
2015,07,01,03,01,15.30
2015,07,01,03,02,15.30
2015,07,01,03,03,15.20
2015,07,01,03,04,15.20
2015,07,01,03,05,15.20
2015,07,01,03,06,15.20
2015,07,01,03,07,15.20
2015,07,01,03,08,15.10
2015,07,01,03,09,15.10
2015,07,01,03,10,15.10
2015,07,01,03,11,15.10
2015,07,01,03,12,15.10
2015,07,01,03,13,15.10
2015,07,01,03,14,15.10
2015,07,01,03,15,15.00
2015,07,01,03,16,15.00
2015,07,01,03,17,15.00
2015,07,01,03,18,15.00
2015,07,01,03,19,15.00
2015,07,01,03,20,15.00
2015,07,01,03,21,15.00
2015,07,01,03,22,15.00
2015,07,01,03,23,15.00
2015,07,01,03,24,15.00
2015,07,01,03,25,14.90
2015,07,01,03,26,14.90
2015,07,01,03,27,14.90
2015,07,01,03,28,14.90
2015,07,01,03,29,14.90
2015,07,01,03,30,14.90
2015,07,01,03,31,14.90
2015,07,01,03,32,14.90
2015,07,01,03,33,14.90
2015,07,01,03,34,14.90
2015,07,01,03,35,14.90
2015,07,01,03,36,14.90
2015,07,01,03,37,14.90
2015,07,01,03,38,14.90
2015,07,01,03,39,14.90
2015,07,01,03,40,14.90
2015,07,01,03,41,14.90
2015,07,01,03,42,14.90
2015,07,01,03,43,14.80
2015,07,01,03,44,14.80
2015,07,01,03,45,14.80
2015,07,01,03,46,14.80
2015,07,01,03,47,14.80
2015,07,01,03,48,14.80
2015,07,01,03,49,14.80
2015,07,01,03,50,14.80
2015,07,01,03,51,14.80
2015,07,01,03,52,14.80
2015,07,01,03,53,14.80
2015,07,01,03,54,14.80
2015,07,01,03,55,14.80
2015,07,01,03,56,14.80
2015,07,01,03,57,14.80
2015,07,01,03,58,14.80
2015,07,01,03,59,14.80
2015,07,01,04,00,14.80
2015,07,01,04,01,14.80
2015,07,01,04,02,14.80
2015,07,01,04,03,14.80
2015,07,01,04,04,14.80
2015,07,01,04,05,14.80
2015,07,01,04,06,14.80
2015,07,01,04,07,14.70
2015,07,01,04,08,14.70
2015,07,01,04,09,14.70
2015,07,01,04,10,14.70
2015,07,01,04,11,14.70
2015,07,01,04,12,14.60
2015,07,01,04,13,14.60
2015,07,01,04,14,14.60
2015,07,01,04,15,14.60
2015,07,01,04,16,14.60
2015,07,01,04,17,14.60
2015,07,01,04,18,14.50
2015,07,01,04,19,14.50
2015,07,01,04,20,14.50
2015,07,01,04,21,14.50
2015,07,01,04,22,14.40
2015,07,01,04,23,14.40
2015,07,01,04,24,14.40
2015,07,01,04,25,14.40
2015,07,01,04,26,14.40
2015,07,01,04,27,14.30
2015,07,01,04,28,14.30
2015,07,01,04,29,14.30
2015,07,01,04,30,14.30
2015,07,01,04,31,14.30
2015,07,01,04,32,14.30
2015,07,01,04,33,14.30
2015,07,01,04,34,14.20
2015,07,01,04,35,14.20
2015,07,01,04,36,14.20
2015,07,01,04,37,14.20
2015,07,01,04,38,14.20
2015,07,01,04,39,14.20
2015,07,01,04,40,14.20
2015,07,01,04,41,14.10
2015,07,01,04,42,14.10
2015,07,01,04,43,14.10
2015,07,01,04,44,14.10
2015,07,01,04,45,14.10
2015,07,01,04,46,14.10
2015,07,01,04,47,14.10
2015,07,01,04,48,14.10
2015,07,01,04,49,14.00
2015,07,01,04,50,14.00
2015,07,01,04,51,14.00
2015,07,01,04,52,14.00
2015,07,01,04,53,14.00
2015,07,01,04,54,14.00
2015,07,01,04,55,14.00
2015,07,01,04,56,14.00
2015,07,01,04,57,14.00
2015,07,01,04,58,13.90
2015,07,01,04,59,13.90
2015,07,01,05,00,13.90
2015,07,01,05,01,13.90
2015,07,01,05,02,13.90
2015,07,01,05,03,13.90
2015,07,01,05,04,13.90
2015,07,01,05,05,13.90
2015,07,01,05,06,13.90
2015,07,01,05,07,13.90
2015,07,01,05,08,13.90
2015,07,01,05,09,13.90
2015,07,01,05,10,13.90
2015,07,01,05,11,13.90
2015,07,01,05,12,13.90
2015,07,01,05,13,13.90
2015,07,01,05,14,13.90
2015,07,01,05,15,13.90
2015,07,01,05,16,13.90
2015,07,01,05,17,13.90
2015,07,01,05,18,13.90
2015,07,01,05,19,13.90
2015,07,01,05,20,13.90
2015,07,01,05,21,13.90
2015,07,01,05,22,13.90
2015,07,01,05,23,13.90
2015,07,01,05,24,13.90
2015,07,01,05,25,13.80
2015,07,01,05,26,13.80
2015,07,01,05,27,13.80
2015,07,01,05,28,13.80
2015,07,01,05,29,13.80
2015,07,01,05,30,13.80
2015,07,01,05,31,13.80
2015,07,01,05,32,13.80
2015,07,01,05,33,13.80
2015,07,01,05,34,13.80
2015,07,01,05,35,13.80
2015,07,01,05,36,13.80
2015,07,01,05,37,13.80
2015,07,01,05,38,13.80
2015,07,01,05,39,13.80
2015,07,01,05,40,13.80
2015,07,01,05,41,13.80
2015,07,01,05,42,13.80
2015,07,01,05,43,13.80
2015,07,01,05,44,13.80
2015,07,01,05,45,13.80
2015,07,01,05,46,13.80
2015,07,01,05,47,13.90
2015,07,01,05,48,13.90
2015,07,01,05,49,13.90
2015,07,01,05,50,13.90
2015,07,01,05,51,13.90
2015,07,01,05,52,13.90
2015,07,01,05,53,13.90
2015,07,01,05,54,13.90
2015,07,01,05,55,13.90
2015,07,01,05,56,13.90
2015,07,01,05,57,13.90
2015,07,01,05,58,13.90
2015,07,01,05,59,13.90
2015,07,01,06,00,13.90
2015,07,01,06,01,13.90
2015,07,01,06,02,13.90
2015,07,01,06,03,13.90
2015,07,01,06,04,13.90
2015,07,01,06,05,13.90
2015,07,01,06,06,13.90
2015,07,01,06,07,13.90
2015,07,01,06,08,13.90
2015,07,01,06,09,13.90
2015,07,01,06,10,13.90
2015,07,01,06,11,13.90
2015,07,01,06,12,13.90
2015,07,01,06,13,13.90
2015,07,01,06,14,13.90
2015,07,01,06,15,13.90
2015,07,01,06,16,13.90
2015,07,01,06,17,13.90
2015,07,01,06,18,13.90
2015,07,01,06,19,13.90
2015,07,01,06,20,13.90
2015,07,01,06,21,14.00
2015,07,01,06,22,14.00
2015,07,01,06,23,14.00
2015,07,01,06,24,14.00
2015,07,01,06,25,14.00
2015,07,01,06,26,14.10
2015,07,01,06,27,14.10
2015,07,01,06,28,14.10
2015,07,01,06,29,14.20
2015,07,01,06,30,14.20
2015,07,01,06,31,14.20
2015,07,01,06,32,14.20
2015,07,01,06,33,14.20
2015,07,01,06,34,14.30
2015,07,01,06,35,14.30
2015,07,01,06,36,14.30
2015,07,01,06,37,14.30
2015,07,01,06,38,14.30
2015,07,01,06,39,14.30
2015,07,01,06,40,14.30
2015,07,01,06,41,14.40
2015,07,01,06,42,14.40
2015,07,01,06,43,14.40
2015,07,01,06,44,14.40
2015,07,01,06,45,14.40
2015,07,01,06,46,14.40
2015,07,01,06,47,14.40
2015,07,01,06,48,14.50
2015,07,01,06,49,14.50
2015,07,01,06,50,14.50
2015,07,01,06,51,14.60
2015,07,01,06,52,14.60
2015,07,01,06,53,14.60
2015,07,01,06,54,14.70
2015,07,01,06,55,14.70
2015,07,01,06,56,14.70
2015,07,01,06,57,14.70
2015,07,01,06,58,14.80
2015,07,01,06,59,14.80
2015,07,01,07,00,14.80
2015,07,01,07,01,14.80
2015,07,01,07,02,14.90
2015,07,01,07,03,14.90
2015,07,01,07,04,14.90
2015,07,01,07,05,15.00
2015,07,01,07,06,15.00
2015,07,01,07,07,15.00
2015,07,01,07,08,15.10
2015,07,01,07,09,15.10
2015,07,01,07,10,15.20
2015,07,01,07,11,15.20
2015,07,01,07,12,15.30
2015,07,01,07,13,15.30
2015,07,01,07,14,15.40
2015,07,01,07,15,15.40
2015,07,01,07,16,15.50
2015,07,01,07,17,15.50
2015,07,01,07,18,15.60
2015,07,01,07,19,15.60
2015,07,01,07,20,15.70
2015,07,01,07,21,15.70
2015,07,01,07,22,15.80
2015,07,01,07,23,15.90
2015,07,01,07,24,15.90
2015,07,01,07,25,16.00
2015,07,01,07,26,16.10
2015,07,01,07,27,16.20
2015,07,01,07,28,16.30
2015,07,01,07,29,16.40
2015,07,01,07,30,16.50
2015,07,01,07,31,16.60
2015,07,01,07,32,16.70
2015,07,01,07,33,16.80
2015,07,01,07,34,16.90
2015,07,01,07,35,17.00
2015,07,01,07,36,17.10
2015,07,01,07,37,17.20
2015,07,01,07,38,17.30
2015,07,01,07,39,17.40
2015,07,01,07,40,17.50
2015,07,01,07,41,17.50
2015,07,01,07,42,17.60
2015,07,01,07,43,17.70
2015,07,01,07,44,17.70
2015,07,01,07,45,17.80
2015,07,01,07,46,17.80
2015,07,01,07,47,17.90
2015,07,01,07,48,17.90
2015,07,01,07,49,18.00
2015,07,01,07,50,18.00
2015,07,01,07,51,18.10
2015,07,01,07,52,18.10
2015,07,01,07,53,18.10
2015,07,01,07,54,18.20
2015,07,01,07,55,18.20
2015,07,01,07,56,18.30
2015,07,01,07,57,18.30
2015,07,01,07,58,18.30
2015,07,01,07,59,18.30
2015,07,01,08,00,18.40
2015,07,01,08,01,18.40
2015,07,01,08,02,18.40
2015,07,01,08,03,18.50
2015,07,01,08,04,18.50
2015,07,01,08,05,18.50
2015,07,01,08,06,18.60
2015,07,01,08,07,18.60
2015,07,01,08,08,18.60
2015,07,01,08,09,18.60
2015,07,01,08,10,18.70
2015,07,01,08,11,18.70
2015,07,01,08,12,18.70
2015,07,01,08,13,18.80
2015,07,01,08,14,18.80
2015,07,01,08,15,18.80
2015,07,01,08,16,18.80
2015,07,01,08,17,18.80
2015,07,01,08,18,18.80
2015,07,01,08,19,18.80
2015,07,01,08,20,18.90
2015,07,01,08,21,18.90
2015,07,01,08,22,18.90
2015,07,01,08,23,18.80
2015,07,01,08,24,18.80
2015,07,01,08,25,18.80
2015,07,01,08,26,18.80
2015,07,01,08,27,18.80
2015,07,01,08,28,18.80
2015,07,01,08,29,18.90
2015,07,01,08,30,18.90
2015,07,01,08,31,18.90
2015,07,01,08,32,18.90
2015,07,01,08,33,18.90
2015,07,01,08,34,19.00
2015,07,01,08,35,19.00
2015,07,01,08,36,19.10
2015,07,01,08,37,19.10
2015,07,01,08,38,19.10
2015,07,01,08,39,19.10
2015,07,01,08,40,19.20
2015,07,01,08,41,19.20
2015,07,01,08,42,19.20
2015,07,01,08,43,19.20
2015,07,01,08,44,19.20
2015,07,01,08,45,19.30
2015,07,01,08,46,19.30
2015,07,01,08,47,19.30
2015,07,01,08,48,19.30
2015,07,01,08,49,19.30
2015,07,01,08,50,19.30
2015,07,01,08,51,19.40
2015,07,01,08,52,19.40
2015,07,01,08,53,19.40
2015,07,01,08,54,19.40
2015,07,01,08,55,19.40
2015,07,01,08,56,19.40
2015,07,01,08,57,19.50
2015,07,01,08,58,19.50
2015,07,01,08,59,19.50
2015,07,01,09,00,19.50
2015,07,01,09,01,19.60
2015,07,01,09,02,19.60
2015,07,01,09,03,19.70
2015,07,01,09,04,19.70
2015,07,01,09,05,19.80
2015,07,01,09,06,19.80
2015,07,01,09,07,19.80
2015,07,01,09,08,19.90
2015,07,01,09,09,19.90
2015,07,01,09,10,19.90
2015,07,01,09,11,19.90
2015,07,01,09,12,20.00
2015,07,01,09,13,20.00
2015,07,01,09,14,20.00
2015,07,01,09,15,20.00
2015,07,01,09,16,20.00
2015,07,01,09,17,20.10
2015,07,01,09,18,20.10
2015,07,01,09,19,20.10
2015,07,01,09,20,20.10
2015,07,01,09,21,20.10
2015,07,01,09,22,20.20
2015,07,01,09,23,20.20
2015,07,01,09,24,20.30
2015,07,01,09,25,20.30
2015,07,01,09,26,20.30
2015,07,01,09,27,20.30
2015,07,01,09,28,20.30
2015,07,01,09,29,20.40
2015,07,01,09,30,20.40
2015,07,01,09,31,20.40
2015,07,01,09,32,20.40
2015,07,01,09,33,20.40
2015,07,01,09,34,20.50
2015,07,01,09,35,20.50
2015,07,01,09,36,20.50
2015,07,01,09,37,20.60
2015,07,01,09,38,20.60
2015,07,01,09,39,20.60
2015,07,01,09,40,20.60
2015,07,01,09,41,20.70
2015,07,01,09,42,20.70
2015,07,01,09,43,20.70
2015,07,01,09,44,20.80
2015,07,01,09,45,20.80
2015,07,01,09,46,20.80
2015,07,01,09,47,20.90
2015,07,01,09,48,20.90
2015,07,01,09,49,20.90
2015,07,01,09,50,21.00
2015,07,01,09,51,21.00
2015,07,01,09,52,21.00
2015,07,01,09,53,21.00
2015,07,01,09,54,21.00
2015,07,01,09,55,21.10
2015,07,01,09,56,21.10
2015,07,01,09,57,21.10
2015,07,01,09,58,21.10
2015,07,01,09,59,21.00
2015,07,01,10,00,21.00
2015,07,01,10,01,21.00
2015,07,01,10,02,21.00
2015,07,01,10,03,20.90
2015,07,01,10,04,20.90
2015,07,01,10,05,21.00
2015,07,01,10,06,21.00
2015,07,01,10,07,21.00
2015,07,01,10,08,21.00
2015,07,01,10,09,21.10
2015,07,01,10,10,21.10
2015,07,01,10,11,21.10
2015,07,01,10,12,21.10
2015,07,01,10,13,21.10
2015,07,01,10,14,21.10
2015,07,01,10,15,21.10
2015,07,01,10,16,21.10
2015,07,01,10,17,21.10
2015,07,01,10,18,21.20
2015,07,01,10,19,21.20
2015,07,01,10,20,21.20
2015,07,01,10,21,21.20
2015,07,01,10,22,21.30
2015,07,01,10,23,21.30
2015,07,01,10,24,21.40
2015,07,01,10,25,21.40
2015,07,01,10,26,21.50
2015,07,01,10,27,21.50
2015,07,01,10,28,21.60
2015,07,01,10,29,21.60
2015,07,01,10,30,21.70
2015,07,01,10,31,21.80
2015,07,01,10,32,21.80
2015,07,01,10,33,21.90
2015,07,01,10,34,21.90
2015,07,01,10,35,21.90
2015,07,01,10,36,21.90
2015,07,01,10,37,21.80
2015,07,01,10,38,21.80
2015,07,01,10,39,21.80
2015,07,01,10,40,21.80
2015,07,01,10,41,21.90
2015,07,01,10,42,21.90
2015,07,01,10,43,21.90
2015,07,01,10,44,22.00
2015,07,01,10,45,22.10
2015,07,01,10,46,22.10
2015,07,01,10,47,22.10
2015,07,01,10,48,22.10
2015,07,01,10,49,22.10
2015,07,01,10,50,22.10
2015,07,01,10,51,22.20
2015,07,01,10,52,22.20
2015,07,01,10,53,22.30
2015,07,01,10,54,22.30
2015,07,01,10,55,22.40
2015,07,01,10,56,22.40
2015,07,01,10,57,22.40
2015,07,01,10,58,22.50
2015,07,01,10,59,22.50
2015,07,01,11,00,22.60
2015,07,01,11,01,22.60
2015,07,01,11,02,22.60
2015,07,01,11,03,22.60
2015,07,01,11,04,22.60
2015,07,01,11,05,22.60
2015,07,01,11,06,22.60
2015,07,01,11,07,22.60
2015,07,01,11,08,22.60
2015,07,01,11,09,22.60
2015,07,01,11,10,22.60
2015,07,01,11,11,22.70
2015,07,01,11,12,22.70
2015,07,01,11,13,22.70
2015,07,01,11,14,22.70
2015,07,01,11,15,22.70
2015,07,01,11,16,22.70
2015,07,01,11,17,22.70
2015,07,01,11,18,22.70
2015,07,01,11,19,22.80
2015,07,01,11,20,22.80
2015,07,01,11,21,22.80
2015,07,01,11,22,22.90
2015,07,01,11,23,22.90
2015,07,01,11,24,22.90
2015,07,01,11,25,23.00
2015,07,01,11,26,23.10
2015,07,01,11,27,23.20
2015,07,01,11,28,23.20
2015,07,01,11,29,23.30
2015,07,01,11,30,23.30
2015,07,01,11,31,23.40
2015,07,01,11,32,23.40
2015,07,01,11,33,23.40
2015,07,01,11,34,23.40
2015,07,01,11,35,23.40
2015,07,01,11,36,23.30
2015,07,01,11,37,23.20
2015,07,01,11,38,23.20
2015,07,01,11,39,23.10
2015,07,01,11,40,23.10
2015,07,01,11,41,23.10
2015,07,01,11,42,23.10
2015,07,01,11,43,23.10
2015,07,01,11,44,23.10
2015,07,01,11,45,23.10
2015,07,01,11,46,23.20
2015,07,01,11,47,23.20
2015,07,01,11,48,23.20
2015,07,01,11,49,23.30
2015,07,01,11,50,23.40
2015,07,01,11,51,23.40
2015,07,01,11,52,23.50
2015,07,01,11,53,23.50
2015,07,01,11,54,23.60
2015,07,01,11,55,23.60
2015,07,01,11,56,23.60
2015,07,01,11,57,23.60
2015,07,01,11,58,23.60
2015,07,01,11,59,23.60
2015,07,01,12,00,23.60
2015,07,01,12,01,23.60
2015,07,01,12,02,23.50
2015,07,01,12,03,23.50
2015,07,01,12,04,23.60
2015,07,01,12,05,23.60
2015,07,01,12,06,23.60
2015,07,01,12,07,23.70
2015,07,01,12,08,23.80
2015,07,01,12,09,23.80
2015,07,01,12,10,23.70
2015,07,01,12,11,23.80
2015,07,01,12,12,23.80
2015,07,01,12,13,23.80
2015,07,01,12,14,23.90
2015,07,01,12,15,23.90
2015,07,01,12,16,23.90
2015,07,01,12,17,23.90
2015,07,01,12,18,24.00
2015,07,01,12,19,24.00
2015,07,01,12,20,24.00
2015,07,01,12,21,24.00
2015,07,01,12,22,24.10
2015,07,01,12,23,24.10
2015,07,01,12,24,24.10
2015,07,01,12,25,24.10
2015,07,01,12,26,24.10
2015,07,01,12,27,24.10
2015,07,01,12,28,24.10
2015,07,01,12,29,24.20
2015,07,01,12,30,24.30
2015,07,01,12,31,24.40
2015,07,01,12,32,24.40
2015,07,01,12,33,24.50
2015,07,01,12,34,24.50
2015,07,01,12,35,24.60
2015,07,01,12,36,24.60
2015,07,01,12,37,24.70
2015,07,01,12,38,24.70
2015,07,01,12,39,24.70
2015,07,01,12,40,24.70
2015,07,01,12,41,24.70
2015,07,01,12,42,24.70
2015,07,01,12,43,24.70
2015,07,01,12,44,24.70
2015,07,01,12,45,24.60
2015,07,01,12,46,24.60
2015,07,01,12,47,24.60
2015,07,01,12,48,24.60
2015,07,01,12,49,24.60
2015,07,01,12,50,24.70
2015,07,01,12,51,24.70
2015,07,01,12,52,24.80
2015,07,01,12,53,24.90
2015,07,01,12,54,24.90
2015,07,01,12,55,25.00
2015,07,01,12,56,25.00
2015,07,01,12,57,25.10
2015,07,01,12,58,25.10
2015,07,01,12,59,25.20
2015,07,01,13,00,25.20
2015,07,01,13,01,25.20
2015,07,01,13,02,25.20
2015,07,01,13,03,25.30
2015,07,01,13,04,25.30
2015,07,01,13,05,25.30
2015,07,01,13,06,25.40
2015,07,01,13,07,25.40
2015,07,01,13,08,25.40
2015,07,01,13,09,25.40
2015,07,01,13,10,25.50
2015,07,01,13,11,25.50
2015,07,01,13,12,25.50
2015,07,01,13,13,25.60
2015,07,01,13,14,25.70
2015,07,01,13,15,25.70
2015,07,01,13,16,25.70
2015,07,01,13,17,25.80
2015,07,01,13,18,25.80
2015,07,01,13,19,25.90
2015,07,01,13,20,26.00
2015,07,01,13,21,26.00
2015,07,01,13,22,26.10
2015,07,01,13,23,26.10
2015,07,01,13,24,26.10
2015,07,01,13,25,26.10
2015,07,01,13,26,26.10
2015,07,01,13,27,26.20
2015,07,01,13,28,26.20
2015,07,01,13,29,26.20
2015,07,01,13,30,26.30
2015,07,01,13,31,26.30
2015,07,01,13,32,26.40
2015,07,01,13,33,26.40
2015,07,01,13,34,26.40
2015,07,01,13,35,26.50
2015,07,01,13,36,26.50
2015,07,01,13,37,26.50
2015,07,01,13,38,26.60
2015,07,01,13,39,26.60
2015,07,01,13,40,26.70
2015,07,01,13,41,26.70
2015,07,01,13,42,26.80
2015,07,01,13,43,26.90
2015,07,01,13,44,27.00
2015,07,01,13,45,27.00
2015,07,01,13,46,27.10
2015,07,01,13,47,27.10
2015,07,01,13,48,27.20
2015,07,01,13,49,27.30
2015,07,01,13,50,27.30
2015,07,01,13,51,27.40
2015,07,01,13,52,27.50
2015,07,01,13,53,27.60
2015,07,01,13,54,27.70
2015,07,01,13,55,27.80
2015,07,01,13,56,27.90
2015,07,01,13,57,28.00
2015,07,01,13,58,28.00
2015,07,01,13,59,28.10
2015,07,01,14,00,28.10
2015,07,01,14,01,28.10
2015,07,01,14,02,28.10
2015,07,01,14,03,28.10
2015,07,01,14,04,28.10
2015,07,01,14,05,28.20
2015,07,01,14,06,28.20
2015,07,01,14,07,28.20
2015,07,01,14,08,28.20
2015,07,01,14,09,28.20
2015,07,01,14,10,28.20
2015,07,01,14,11,28.20
2015,07,01,14,12,28.10
2015,07,01,14,13,28.10
2015,07,01,14,14,28.10
2015,07,01,14,15,28.00
2015,07,01,14,16,28.00
2015,07,01,14,17,28.00
2015,07,01,14,18,27.90
2015,07,01,14,19,27.90
2015,07,01,14,20,27.90
2015,07,01,14,21,27.80
2015,07,01,14,22,27.80
2015,07,01,14,23,27.80
2015,07,01,14,24,27.70
2015,07,01,14,25,27.70
2015,07,01,14,26,27.70
2015,07,01,14,27,27.70
2015,07,01,14,28,27.70
2015,07,01,14,29,27.70
2015,07,01,14,30,27.70
2015,07,01,14,31,27.70
2015,07,01,14,32,27.70
2015,07,01,14,33,27.70
2015,07,01,14,34,27.70
2015,07,01,14,35,27.60
2015,07,01,14,36,27.50
2015,07,01,14,37,27.40
2015,07,01,14,38,27.40
2015,07,01,14,39,27.30
2015,07,01,14,40,27.20
2015,07,01,14,41,27.20
2015,07,01,14,42,27.20
2015,07,01,14,43,27.10
2015,07,01,14,44,27.10
2015,07,01,14,45,27.10
2015,07,01,14,46,27.10
2015,07,01,14,47,27.10
2015,07,01,14,48,27.10
2015,07,01,14,49,27.10
2015,07,01,14,50,27.10
2015,07,01,14,51,27.10
2015,07,01,14,52,27.10
2015,07,01,14,53,27.10
2015,07,01,14,54,27.20
2015,07,01,14,55,27.20
2015,07,01,14,56,27.30
2015,07,01,14,57,27.50
2015,07,01,14,58,27.50
2015,07,01,14,59,27.70
2015,07,01,15,00,27.80
2015,07,01,15,01,27.80
2015,07,01,15,02,27.90
2015,07,01,15,03,27.90
2015,07,01,15,04,28.00
2015,07,01,15,05,28.10
2015,07,01,15,06,28.10
2015,07,01,15,07,28.20
2015,07,01,15,08,28.20
2015,07,01,15,09,28.20
2015,07,01,15,10,28.20
2015,07,01,15,11,28.30
2015,07,01,15,12,28.30
2015,07,01,15,13,28.30
2015,07,01,15,14,28.30
2015,07,01,15,15,28.30
2015,07,01,15,16,28.30
2015,07,01,15,17,28.30
2015,07,01,15,18,28.30
2015,07,01,15,19,28.40
2015,07,01,15,20,28.40
2015,07,01,15,21,28.50
2015,07,01,15,22,28.50
2015,07,01,15,23,28.60
2015,07,01,15,24,28.60
2015,07,01,15,25,28.60
2015,07,01,15,26,28.60
2015,07,01,15,27,28.70
2015,07,01,15,28,28.70
2015,07,01,15,29,28.70
2015,07,01,15,30,28.70
2015,07,01,15,31,28.70
2015,07,01,15,32,28.60
2015,07,01,15,33,28.60
2015,07,01,15,34,28.50
2015,07,01,15,35,28.50
2015,07,01,15,36,28.40
2015,07,01,15,37,28.40
2015,07,01,15,38,28.40
2015,07,01,15,39,28.40
2015,07,01,15,40,28.40
2015,07,01,15,41,28.40
2015,07,01,15,42,28.40
2015,07,01,15,43,28.40
2015,07,01,15,44,28.40
2015,07,01,15,45,28.40
2015,07,01,15,46,28.40
2015,07,01,15,47,28.50
2015,07,01,15,48,28.50
2015,07,01,15,49,28.60
2015,07,01,15,50,28.70
2015,07,01,15,51,28.70
2015,07,01,15,52,28.80
2015,07,01,15,53,28.80
2015,07,01,15,54,28.80
2015,07,01,15,55,28.80
2015,07,01,15,56,28.80
2015,07,01,15,57,28.90
2015,07,01,15,58,28.90
2015,07,01,15,59,28.90
2015,07,01,16,00,28.90
2015,07,01,16,01,29.00
2015,07,01,16,02,29.00
2015,07,01,16,03,29.10
2015,07,01,16,04,29.10
2015,07,01,16,05,29.10
2015,07,01,16,06,29.20
2015,07,01,16,07,29.20
2015,07,01,16,08,29.20
2015,07,01,16,09,29.20
2015,07,01,16,10,29.20
2015,07,01,16,11,29.20
2015,07,01,16,12,29.20
2015,07,01,16,13,29.20
2015,07,01,16,14,29.20
2015,07,01,16,15,29.20
2015,07,01,16,16,29.20
2015,07,01,16,17,29.20
2015,07,01,16,18,29.30
2015,07,01,16,19,29.30
2015,07,01,16,20,29.30
2015,07,01,16,21,29.40
2015,07,01,16,22,29.40
2015,07,01,16,23,29.50
2015,07,01,16,24,29.50
2015,07,01,16,25,29.60
2015,07,01,16,26,29.70
2015,07,01,16,27,29.70
2015,07,01,16,28,29.70
2015,07,01,16,29,29.80
2015,07,01,16,30,29.80
2015,07,01,16,31,29.80
2015,07,01,16,32,29.80
2015,07,01,16,33,29.80
2015,07,01,16,34,29.80
2015,07,01,16,35,29.80
2015,07,01,16,36,29.80
2015,07,01,16,37,29.80
2015,07,01,16,38,29.80
2015,07,01,16,39,29.90
2015,07,01,16,40,29.90
2015,07,01,16,41,30.00
2015,07,01,16,42,30.10
2015,07,01,16,43,30.20
2015,07,01,16,44,30.30
2015,07,01,16,45,30.30
2015,07,01,16,46,30.40
2015,07,01,16,47,30.40
2015,07,01,16,48,30.50
2015,07,01,16,49,30.50
2015,07,01,16,50,30.40
2015,07,01,16,51,30.40
2015,07,01,16,52,30.40
2015,07,01,16,53,30.40
2015,07,01,16,54,30.40
2015,07,01,16,55,30.40
2015,07,01,16,56,30.30
2015,07,01,16,57,30.30
2015,07,01,16,58,30.20
2015,07,01,16,59,30.20
2015,07,01,17,00,30.20
2015,07,01,17,01,30.20
2015,07,01,17,02,30.20
2015,07,01,17,03,30.20
2015,07,01,17,04,30.20
2015,07,01,17,05,30.20
2015,07,01,17,06,30.20
2015,07,01,17,07,30.20
2015,07,01,17,08,30.20
2015,07,01,17,09,30.20
2015,07,01,17,10,30.10
2015,07,01,17,11,30.20
2015,07,01,17,12,30.20
2015,07,01,17,13,30.20
2015,07,01,17,14,30.20
2015,07,01,17,15,30.20
2015,07,01,17,16,30.20
2015,07,01,17,17,30.20
2015,07,01,17,18,30.30
2015,07,01,17,19,30.30